Weather History for KGTB - August, 2013

Change the Weather History Date:

Thursday, August 8, 2013

  Actual Average Record
Temperature  
Mean Temperature 74 °F -  
Max Temperature 81 °F 76 °F 91 °F (2001)
Min Temperature 67 °F 56 °F 48 °F (2002)
Cooling Degree Days 8    
Growing Degree Days 24 (Base 50)    
Moisture  
Dew Point 69 °F    
Average Humidity 89    
Maximum Humidity 100    
Minimum Humidity 70    
Precipitation  
Precipitation 0.18 in - - ()
Sea Level Pressure  
Sea Level Pressure 29.94 in    
Wind  
Wind Speed 10 mph (SW)    
Max Wind Speed 18 mph    
Max Gust Speed 28 mph    
Visibility 10 miles    
Events Rain    
Averages and records for this station are not official NWS values.
T = Trace of Precipitation, MM = Missing Value Source: NWS Daily Summary

Daily Weather History Graph

Daily Weather History Graph

Search for Another Location

Airport or City:

Trip Planner

Search our weather history database for the weather conditions in past years. The results will help you decide how hot, cold, wet, or windy it might be!

Date:

Astronomy

Aug. 08, 2013 Rise Set
Actual Time 5:58 AM EDT 8:17 PM EDT
Civil Twilight 5:26 AM EDT 8:49 PM EDT
Nautical Twilight 4:46 AM EDT 9:28 PM EDT
Astronomical Twilight 4:02 AM EDT 10:13 PM EDT
Moon 7:49 AM EDT (8/8) 8:47 PM EDT (8/8)
Length of Visible Light 15h 22m
Length of Day
14h 18m
Waxing Crescent, 3% of the Moon is Illuminated
Aug 8
Waxing Crescent
Aug 14
First Quarter
Aug 20
Full
Aug 28
Last Quarter
Sep 5
New

Hourly Weather History & Observations

Time (EDT) Temp. Heat Index Dew Point Humidity Pressure Visibility Wind Dir Wind Speed Gust Speed Precip Events Conditions
12:52 AM 73.4 °F - 66.2 °F 78% 29.90 in 10.0 mi SSW 18.4 mph 25.3 mph N/A Rain Light Rain
12:58 AM 72.5 °F - 66.7 °F 82% 29.89 in 10.0 mi SSW 15.0 mph 25.3 mph 0.00 in Rain Light Rain
1:25 AM 71.6 °F - 66.2 °F 83% 29.90 in 10.0 mi SSW 18.4 mph 27.6 mph N/A   Partly Cloudy
1:32 AM 71.6 °F - 66.2 °F 83% 29.90 in 10.0 mi SW 16.1 mph 24.2 mph N/A   Light Drizzle
1:58 AM 70.7 °F - 67.6 °F 90% 29.91 in 10.0 mi SW 13.8 mph 20.7 mph 0.01 in Rain Light Rain
2:03 AM 69.8 °F - 68.0 °F 94% 29.92 in 10.0 mi SW 10.4 mph 20.7 mph N/A Rain Light Rain
2:13 AM 69.8 °F - 68.0 °F 94% 29.93 in 9.0 mi West 10.4 mph 20.7 mph N/A Rain Light Rain
2:28 AM 68.0 °F - 68.0 °F 100% 29.93 in 7.0 mi WSW 11.5 mph 17.3 mph N/A Rain Light Rain
2:33 AM 68.0 °F - 68.0 °F 100% 29.92 in 2.5 mi SW 15.0 mph 19.6 mph N/A Rain Heavy Rain
2:38 AM 68.0 °F - 68.0 °F 100% 29.92 in 2.0 mi SW 10.4 mph 19.6 mph N/A Rain Light Rain
2:43 AM 68.0 °F - 68.0 °F 100% 29.92 in 4.0 mi SSW 10.4 mph 18.4 mph N/A Rain Light Rain
2:48 AM 68.0 °F - 68.0 °F 100% 29.92 in 10.0 mi SSW 16.1 mph 25.3 mph N/A Rain Light Rain
2:51 AM 69.8 °F - 69.8 °F 100% 29.91 in 10.0 mi SSW 12.7 mph 25.3 mph N/A   Overcast
2:56 AM 69.8 °F - 69.8 °F 100% 29.90 in 10.0 mi South 13.8 mph 25.3 mph N/A   Overcast
2:58 AM 69.4 °F - 68.9 °F 98% 29.89 in 10.0 mi South 15.0 mph 25.3 mph 0.16 in   Mostly Cloudy
3:07 AM 69.8 °F - 69.8 °F 100% 29.90 in 10.0 mi SSW 11.5 mph - N/A   Light Drizzle
3:16 AM 68.0 °F - 68.0 °F 100% 29.90 in 10.0 mi SSW 13.8 mph - N/A   Scattered Clouds
3:58 AM 68.9 °F - 68.5 °F 99% 29.90 in 10.0 mi SW 8.1 mph - 0.00 in   Mostly Cloudy
4:58 AM 68.7 °F - 68.0 °F 98% 29.91 in 10.0 mi SW 5.8 mph - N/A   Mostly Cloudy
5:58 AM 68.0 °F - 68.0 °F 100% 29.94 in 10.0 mi SW 6.9 mph - N/A   Mostly Cloudy
6:13 AM 68.0 °F - 68.0 °F 100% 29.94 in 10.0 mi SSW 6.9 mph - N/A   Mostly Cloudy
6:58 AM 68.5 °F - 67.6 °F 97% 29.95 in 10.0 mi SSW 5.8 mph - N/A   Mostly Cloudy
7:35 AM 69.8 °F - 66.2 °F 88% 29.97 in 10.0 mi WSW 10.4 mph 20.7 mph N/A   Light Drizzle
7:50 AM 68.0 °F - 66.2 °F 94% 29.97 in 10.0 mi SW 8.1 mph 21.9 mph N/A Rain Light Rain
7:58 AM 67.8 °F - 66.9 °F 97% 29.97 in 10.0 mi SW 8.1 mph - 0.00 in   Light Drizzle
7:59 AM 68.0 °F - 66.2 °F 94% 29.97 in 10.0 mi SW 6.9 mph - N/A   Scattered Clouds
8:58 AM 67.8 °F - 66.4 °F 95% 29.98 in 10.0 mi SW 4.6 mph - 0.00 in   Scattered Clouds
9:30 AM 69.8 °F - 66.2 °F 88% 29.98 in 10.0 mi SW 5.8 mph - N/A   Light Drizzle
9:37 AM 71.6 °F - 68.0 °F 88% 29.98 in 10.0 mi SSW 8.1 mph - N/A   Mostly Cloudy
9:58 AM 72.9 °F - 66.9 °F 82% 29.96 in 10.0 mi SSW 5.8 mph - 0.00 in   Scattered Clouds
10:03 AM 73.4 °F - 68.0 °F 83% 29.97 in 10.0 mi SW 5.8 mph - N/A   Mostly Cloudy
10:58 AM 72.5 °F - 68.5 °F 87% 29.96 in 10.0 mi West 3.5 mph - N/A   Overcast
11:58 AM 75.6 °F - 69.4 °F 81% 29.94 in 10.0 mi Variable 5.8 mph - N/A   Mostly Cloudy
12:08 PM 77.0 °F - 69.8 °F 78% 29.95 in 10.0 mi West 4.6 mph - N/A   Scattered Clouds
12:13 PM 77.0 °F - 69.8 °F 78% 29.95 in 10.0 mi Variable 3.5 mph - N/A   Mostly Cloudy
12:58 PM 77.5 °F - 70.0 °F 77% 29.96 in 10.0 mi Variable 5.8 mph - N/A   Mostly Cloudy
1:03 PM 78.8 °F - 69.8 °F 74% 29.97 in 10.0 mi WNW 8.1 mph - N/A   Mostly Cloudy
1:33 PM 77.0 °F - 69.8 °F 78% 29.97 in 10.0 mi Variable 4.6 mph - N/A   Mostly Cloudy
1:38 PM 77.0 °F - 69.8 °F 78% 29.97 in 10.0 mi NNE 4.6 mph - N/A   Mostly Cloudy
1:43 PM 77.0 °F - 71.6 °F 83% 29.97 in 10.0 mi WNW 6.9 mph - N/A   Mostly Cloudy
1:58 PM 76.8 °F - 70.7 °F 81% 29.96 in 10.0 mi NW 4.6 mph - N/A   Mostly Cloudy
2:18 PM 77.0 °F - 71.6 °F 83% 29.97 in 10.0 mi NW 6.9 mph - N/A   Mostly Cloudy
2:43 PM 77.0 °F - 71.6 °F 83% 29.97 in 10.0 mi WNW 5.8 mph - N/A   Mostly Cloudy
2:48 PM 78.8 °F - 71.6 °F 78% 29.97 in 10.0 mi WNW 8.1 mph - N/A   Scattered Clouds
2:58 PM 78.4 °F - 71.1 °F 78% 29.96 in 10.0 mi Variable 4.6 mph - N/A   Mostly Cloudy
3:03 PM 78.8 °F - 71.6 °F 78% 29.97 in 10.0 mi WNW 5.8 mph - N/A   Scattered Clouds
3:08 PM 78.8 °F - 71.6 °F 78% 29.96 in 10.0 mi NW 8.1 mph - N/A   Mostly Cloudy
3:28 PM 80.6 °F 84.6 °F 71.6 °F 74% 29.96 in 10.0 mi Variable 4.6 mph - N/A   Scattered Clouds
3:58 PM 80.8 °F 84.2 °F 70.3 °F 70% 29.94 in 10.0 mi WSW 6.9 mph - N/A   Scattered Clouds
4:58 PM 79.9 °F - 71.2 °F 75% 29.94 in 10.0 mi NW 3.5 mph - N/A   Partly Cloudy
5:58 PM 77.9 °F - 70.5 °F 78% 29.94 in 10.0 mi WSW 3.5 mph - N/A   Clear
6:58 PM 77.0 °F - 70.5 °F 80% 29.94 in 10.0 mi SSW 4.6 mph - N/A   Partly Cloudy
7:58 PM 75.0 °F - 71.8 °F 90% 29.94 in 10.0 mi West 1.2 mph - N/A   Clear
8:58 PM 72.1 °F - 72.1 °F 100% 29.94 in 7.0 mi Calm Calm - N/A   Partly Cloudy
9:13 PM 71.6 °F - 71.6 °F 100% 29.95 in 8.0 mi SSW 1.2 mph - N/A   Light Drizzle
9:16 PM 71.6 °F - 71.6 °F 100% 29.94 in 9.0 mi SW 1.2 mph - N/A   Scattered Clouds
9:29 PM 71.6 °F - 71.6 °F 100% 29.94 in 8.0 mi Calm Calm - N/A Rain Light Rain
9:39 PM 71.6 °F - 71.6 °F 100% 29.94 in 10.0 mi NNW 2.3 mph - N/A   Scattered Clouds
9:58 PM 72.1 °F - 72.1 °F 100% 29.94 in 10.0 mi Calm Calm - 0.00 in   Mostly Cloudy
10:28 PM 71.6 °F - 71.6 °F 100% 29.94 in 10.0 mi SW 3.5 mph - N/A   Light Drizzle
10:52 PM 71.6 °F - 71.6 °F 100% 29.94 in 10.0 mi SSW 2.3 mph - N/A   Scattered Clouds
10:58 PM 71.8 °F - 71.8 °F 100% 29.93 in 10.0 mi South 2.3 mph - 0.01 in   Scattered Clouds